Location: Isle of Man Observatory
(54.1776°N, 4.6264°W)
Time: 15:38:53
(UTC+02:00)

ARIANE 6 FM1 Upper Stage - Pass Details

Date: 23 April 2026
Orbit: 526 x 601 km, 62.0° (Epoch: 19 May)

Event Time Altitude Azimuth Distance (km) Brightness Sun altitude
Rises 02:49:06 0° 301° (WNW) 2,674 6.4 -23.0°
Reaches altitude 10° 02:51:46 10° 283° (WNW) 1,776 5.2 -22.9°
Enters shadow 02:52:08 12° 279° (W) 1,674 5.1 -22.9°
